CQ0XPA-11 Weather Reports


time (UTC)temp
C
wind
direction
speed
KPH
gust
KPH
rain 1hr
cm
rain 24hr
cm
rain mn
cm
humidity
%
barometer
mb
20181017182409 13 157 0.0 0.0 0.00 0.00 0.00 100 1009.3
20181017182206 13 157 0.0 1.6 0.00 0.00 0.00 100 1009.2
20181017182004 13 157 0.0 1.6 0.00 0.00 0.00 100 1009.2
20181017181801 13 157 0.0 1.6 0.00 0.00 0.00 100 1009.3
20181017181600 13 157 0.0 0.0 0.00 0.00 0.00 100 1009.2
20181017181357 13 157 0.0 0.0 0.00 0.00 0.00 100 1009.3
20181017181156 13 270 0.0 0.0 0.00 0.00 0.00 100 1009.2
20181017180953 13 157 0.0 0.0 0.00 0.00 0.00 100 1009.4
20181017180752 13 270 0.0 0.0 0.00 0.00 0.00 100 1009.3
20181017180549 13 90 0.0 1.6 0.00 0.00 0.00 99 1009.3
20181017180347 14 247 0.0 1.6 0.00 0.00 0.00 100 1009.3
20181017180145 14 157 1.6 1.6 0.00 0.00 0.00 100 1009.3
20181017175944 14 90 0.0 1.6 0.00 0.00 0.00 100 1009.3
20181017175741 14 270 0.0 3.2 0.00 0.00 0.00 99 1009.4
20181017175337 14 90 0.0 1.6 0.00 0.00 0.00 99 1009.4
20181017175135 14 0 0.0 1.6 0.00 0.00 0.00 99 1009.5
20181017174933 14 157 1.6 1.6 0.00 0.00 0.00 99 1009.4
20181017174731 14 157 0.0 1.6 0.00 0.00 0.00 99 1009.4
20181017174528 14 157 0.0 4.8 0.00 0.00 0.00 99 1009.2
20181017174327 14 90 0.0 4.8 0.00 0.00 0.00 98 1009.4
20181017174124 14 157 0.0 1.6 0.00 0.00 0.00 97 1009.4
20181017173923 14 45 0.0 1.6 0.00 0.00 0.00 98 1009.4
20181017173720 14 270 0.0 3.2 0.00 0.00 0.00 97 1009.4
20181017173518 14 270 0.0 3.2 0.00 0.00 0.00 97 1009.4
20181017173316 14 180 0.0 3.2 0.00 0.00 0.00 97 1009.4
20181017173114 14 270 0.0 3.2 0.00 0.00 0.00 97 1009.5
20181017172912 14 157 1.6 4.8 0.00 0.00 0.00 96 1009.4
20181017172710 14 157 1.6 4.8 0.00 0.00 0.00 96 1009.5
20181017172306 14 157 1.6 4.8 0.00 0.00 0.00 96 1009.5
20181017172104 14 0 1.6 4.8 0.00 0.00 0.00 96 1009.4
20181017171904 14 157 1.6 6.4 0.00 0.00 0.00 95 1009.4
20181017171659 15 157 4.8 6.4 0.00 0.00 0.00 95 1009.5
20181017171458 15 45 6.4 8.0 0.00 0.00 0.00 95 1009.5
20181017171255 15 258 4.8 12.9 0.00 0.00 0.00 95 1009.5
20181017171054 15 0 6.4 12.9 0.00 0.00 0.00 94 1009.4
20181017170851 15 157 3.2 8.0 0.00 0.00 0.00 94 1009.4
20181017170650 15 0 6.4 9.7 0.00 0.00 0.00 95 1009.4
20181017170449 15 157 3.2 9.7 0.00 0.00 0.00 95 1009.3
20181017170245 15 0 9.7 9.7 0.00 0.00 0.00 96 1009.3
20181017170043 15 45 1.6 8.0 0.00 0.00 0.00 95 1009.2
20181017165842 15 90 4.8 8.0 0.00 0.00 0.00 95 1009.1
20181017165639 15 90 4.8 8.0 0.00 0.00 0.00 95 1009.1
20181017165437 15 90 3.2 8.0 0.00 0.00 0.00 95 1009.1
20181017165235 15 90 8.0 8.0 0.00 0.00 0.00 95 1009.1
20181017165033 15 45 6.4 8.0 0.00 0.00 0.00 95 1009.1
20181017164830 15 45 4.8 9.7 0.00 0.00 0.00 93 1009.2
20181017164629 15 45 4.8 9.7 0.00 0.00 0.00 93 1009.2
20181017164426 16 0 9.7 11.3 0.00 0.00 0.00 93 1009.2
20181017164225 16 45 6.4 16.1 0.00 0.00 0.00 92 1009.3
20181017164022 16 90 12.9 16.1 0.00 0.00 0.00 92 1009.1
20181017163821 16 90 16.1 16.1 0.00 0.00 0.00 92 1009.2
20181017163620 16 90 4.8 14.5 0.00 0.00 0.00 90 1009.2
20181017163418 16 90 12.9 14.5 0.00 0.00 0.00 88 1009.1
20181017163215 17 90 11.3 11.3 0.00 0.00 0.00 87 1009.2
20181017163014 17 0 3.2 6.4 0.00 0.00 0.00 86 1009.2
20181017162810 17 90 3.2 11.3 0.00 0.00 0.00 85 1009.2
20181017162610 17 90 4.8 11.3 0.00 0.00 0.00 83 1009.4
20181017162406 17 0 11.3 11.3 0.00 0.00 0.00 82 1009.3
20181017162204 17 90 1.6 9.7 0.00 0.00 0.00 81 1009.3
20181017162001 17 90 3.2 9.7 0.00 0.00 0.00 81 1009.3
20181017161800 18 45 6.4 9.7 0.00 0.00 0.00 80 1009.3
20181017161557 18 45 9.7 12.9 0.00 0.00 0.00 79 1009.3
20181017161356 18 45 6.4 17.7 0.00 0.00 0.00 78 1009.2
20181017161153 18 90 11.3 17.7 0.00 0.00 0.00 77 1009.2
20181017160952 18 90 11.3 16.1 0.00 0.00 0.00 76 1009.2
20181017160749 18 45 8.0 14.5 0.00 0.00 0.00 75 1009.1
20181017160550 19 90 11.3 14.5 0.00 0.00 0.00 75 1009.1
20181017160345 19 90 6.4 14.5 0.00 0.00 0.00 75 1009.0
20181017160143 19 90 6.4 9.7 0.00 0.00 0.00 74 1009.0
20181017155941 19 90 4.8 9.7 0.00 0.00 0.00 74 1009.1
20181017155741 19 45 8.0 11.3 0.00 0.00 0.00 74 1008.9
20181017155537 19 45 8.0 11.3 0.00 0.00 0.00 74 1008.9
20181017155335 20 90 3.2 11.3 0.00 0.00 0.00 73 1009.0
20181017155134 20 45 6.4 11.3 0.00 0.00 0.00 73 1008.8
20181017154933 20 45 6.4 11.3 0.00 0.00 0.00 74 1009.0
20181017154730 20 45 8.0 9.7 0.00 0.00 0.00 73 1008.9
20181017154324 20 90 8.0 8.0 0.00 0.00 0.00 73 1008.8
20181017154123 20 45 6.4 11.3 0.00 0.00 0.00 73 1008.9
20181017153920 20 90 6.4 11.3 0.00 0.00 0.00 72 1008.9
20181017153719 20 270 4.8 9.7 0.00 0.00 0.00 72 1008.9
20181017153516 20 270 6.4 9.7 0.00 0.00 0.00 72 1008.8
20181017153314 20 90 3.2 8.0 0.00 0.00 0.00 72 1008.9
20181017153112 20 90 4.8 11.3 0.00 0.00 0.00 71 1009.0
20181017152911 20 90 4.8 11.3 0.00 0.00 0.00 72 1008.9
20181017152708 20 0 6.4 9.7 0.00 0.00 0.00 72 1008.9
20181017152506 20 90 6.4 8.0 0.00 0.00 0.00 72 1009.0
20181017152304 20 45 4.8 11.3 0.00 0.00 0.00 72 1009.1
20181017152102 20 90 4.8 11.3 0.00 0.00 0.00 72 1009.1
20181017151859 20 90 4.8 8.0 0.00 0.00 0.00 72 1009.1
20181017151658 20 90 3.2 11.3 0.00 0.00 0.00 73 1009.1
20181017151455 20 90 1.6 11.3 0.00 0.00 0.00 73 1009.1
20181017150849 20 270 6.4 9.7 0.00 0.00 0.00 73 1009.2
20181017150445 20 45 3.2 6.4 0.00 0.00 0.00 73 1009.3
20181017150243 20 45 1.6 6.4 0.00 0.00 0.00 73 1009.1
20181017150041 20 270 1.6 8.0 0.00 0.00 0.00 72 1009.1
20181017145839 20 270 3.2 8.0 0.00 0.00 0.00 71 1009.2
20181017145637 20 45 3.2 6.4 0.00 0.00 0.00 71 1009.2
20181017145435 20 270 6.4 6.4 0.00 0.00 0.00 71 1009.1
20181017145233 20 90 1.6 4.8 0.00 0.00 0.00 70 1009.3
20181017145030 20 90 3.2 4.8 0.00 0.00 0.00 70 1009.3
20181017144829 20 270 1.6 6.4 0.00 0.00 0.00 70 1009.4
20181017144627 20 90 1.6 11.3 0.00 0.00 0.00 71 1009.4
20181017144425 20 270 3.2 12.9 0.00 0.00 0.00 70 1009.4
20181017144222 20 45 9.7 12.9 0.00 0.00 0.00 70 1009.5
20181017144021 20 67 8.0 12.9 0.00 0.00 0.00 70 1009.4
20181017143818 20 90 4.8 11.3 0.00 0.00 0.00 71 1009.6
20181017143616 20 270 8.0 9.7 0.00 0.00 0.00 72 1009.5
20181017143414 20 45 3.2 16.1 0.00 0.00 0.00 71 1009.6
20181017143212 20 270 8.0 16.1 0.00 0.00 0.00 71 1009.6
20181017143010 21 90 6.4 12.9 0.00 0.00 0.00 70 1009.6
20181017142808 21 45 9.7 11.3 0.00 0.00 0.00 70 1009.6
20181017142606 21 45 8.0 11.3 0.00 0.00 0.00 69 1009.6
20181017142156 21 0 9.7 11.3 0.00 0.00 0.00 68 1009.7
20181017141955 21 90 4.8 11.3 0.00 0.00 0.00 68 1009.6
20181017141752 22 45 6.4 11.3 0.00 0.00 0.00 68 1009.6
20181017141551 22 90 4.8 16.1 0.00 0.00 0.00 66 1009.4
20181017141348 22 258 4.8 16.1 0.00 0.00 0.00 66 1009.5
20181017141147 22 45 8.0 12.9 0.00 0.00 0.00 65 1009.5
20181017140944 22 270 8.0 12.9 0.00 0.00 0.00 65 1009.5
20181017140742 23 45 9.7 12.9 0.00 0.00 0.00 65 1009.4
20181017140540 23 45 3.2 9.7 0.00 0.00 0.00 66 1009.4
20181017140338 23 315 8.0 9.7 0.00 0.00 0.00 67 1009.4
20181017140136 22 0 3.2 6.4 0.00 0.00 0.00 67 1009.4
20181017135934 22 270 3.2 9.7 0.00 0.00 0.00 67 1009.3
20181017135732 22 258 4.8 9.7 0.00 0.00 0.00 66 1009.3
20181017135530 22 247 9.7 9.7 0.00 0.00 0.00 66 1009.3
20181017135327 22 270 3.2 3.2 0.00 0.00 0.00 68 1009.4
20181017135126 22 45 1.6 8.0 0.00 0.00 0.00 68 1009.4
20181017134722 22 45 4.8 6.4 0.00 0.00 0.00 67 1009.3
20181017134519 22 213 4.8 9.7 0.00 0.00 0.00 67 1009.4
20181017134318 22 45 8.0 9.7 0.00 0.00 0.00 66 1009.5
20181017134115 22 270 6.4 14.5 0.00 0.00 0.00 66 1009.4
20181017133913 22 270 9.7 14.5 0.00 0.00 0.00 66 1009.5
20181017133711 22 45 1.6 6.4 0.00 0.00 0.00 68 1009.5
20181017133307 22 270 6.4 8.0 0.00 0.00 0.00 67 1009.7
20181017133105 22 270 4.8 6.4 0.00 0.00 0.00 69 1009.7
20181017132903 22 90 4.8 4.8 0.00 0.00 0.00 69 1009.7
20181017132701 22 180 1.6 12.9 0.00 0.00 0.00 70 1009.7
20181017132257 21 258 9.7 12.9 0.00 0.00 0.00 68 1009.9
20181017132054 21 45 3.2 9.7 0.00 0.00 0.00 71 1010.0
20181017131853 21 90 6.4 9.7 0.00 0.00 0.00 72 1010.1
20181017131650 21 45 3.2 9.7 0.00 0.00 0.00 71 1010.2
20181017131449 21 213 4.8 9.7 0.00 0.00 0.00 72 1010.2
20181017131246 21 180 4.8 11.3 0.00 0.00 0.00 72 1010.4
20181017131045 21 45 4.8 11.3 0.00 0.00 0.00 72 1010.4
20181017130842 21 270 1.6 8.0 0.00 0.00 0.00 73 1010.3
20181017130640 21 247 3.2 6.4 0.00 0.00 0.00 73 1010.4
20181017130236 20 247 3.2 8.0 0.00 0.00 0.00 73 1010.6
20181017130034 20 258 6.4 8.0 0.00 0.00 0.00 74 1010.7
20181017125832 20 90 3.2 12.9 0.00 0.00 0.00 74 1010.7
20181017125630 20 270 6.4 12.9 0.00 0.00 0.00 74 1010.7
20181017125428 20 270 4.8 8.0 0.00 0.00 0.00 75 1010.8
20181017125225 20 258 6.4 11.3 0.00 0.00 0.00 75 1010.8
20181017125024 20 258 4.8 11.3 0.00 0.00 0.00 75 1010.8
20181017124821 20 270 1.6 6.4 0.00 0.00 0.00 76 1010.9
20181017124620 20 270 3.2 6.4 0.00 0.00 0.00 75 1010.9
20181017124417 20 270 3.2 6.4 0.00 0.00 0.00 75 1011.0
20181017124216 20 270 4.8 6.4 0.00 0.00 0.00 75 1011.1
20181017124013 20 247 3.2 6.4 0.00 0.00 0.00 76 1011.1
20181017123811 20 247 0.0 6.4 0.00 0.00 0.00 75 1011.1
20181017123609 20 258 4.8 4.8 0.00 0.00 0.00 75 1011.2
20181017123407 20 270 1.6 6.4 0.00 0.00 0.00 76 1011.2
20181017123205 20 270 4.8 6.4 0.00 0.00 0.00 75 1011.2
20181017123003 20 270 6.4 8.0 0.00 0.00 0.00 74 1011.2
20181017122801 21 45 6.4 9.7 0.00 0.00 0.00 74 1011.3
20181017122559 21 45 3.2 9.7 0.00 0.00 0.00 72 1011.3
20181017122356 21 270 4.8 9.7 0.00 0.00 0.00 72 1011.2
20181017122155 21 191 0.0 8.0 0.00 0.00 0.00 73 1011.3
20181017121952 21 270 3.2 8.0 0.00 0.00 0.00 72 1011.4
20181017121751 22 45 4.8 9.7 0.00 0.00 0.00 72 1011.5
20181017121548 22 90 6.4 9.7 0.00 0.00 0.00 70 1011.5
20181017121347 22 270 1.6 4.8 0.00 0.00 0.00 72 1011.4
20181017121144 22 270 0.0 4.8 0.00 0.00 0.00 73 1011.5
20181017120942 21 45 3.2 4.8 0.00 0.00 0.00 72 1011.5
20181017120740 21 90 3.2 9.7 0.00 0.00 0.00 72 1011.5
20181017120538 21 270 6.4 9.7 0.00 0.00 0.00 72 1011.6
20181017120336 21 90 1.6 6.4 0.00 0.00 0.00 73 1011.5
20181017120134 21 45 4.8 6.4 0.00 0.00 0.00 71 1011.6
20181017115932 21 270 3.2 4.8 0.00 0.00 0.00 73 1011.7
20181017115730 21 45 3.2 6.4 0.00 0.00 0.00 72 1011.6
20181017115527 21 270 4.8 6.4 0.00 0.00 0.00 71 1011.6
20181017115326 21 258 3.2 6.4 0.00 0.00 0.00 73 1011.6
20181017115123 21 90 3.2 6.4 0.00 0.00 0.00 74 1011.6
20181017114922 21 247 1.6 6.4 0.00 0.00 0.00 74 1011.6
20181017114719 21 90 4.8 6.4 0.00 0.00 0.00 73 1011.6
20181017114518 21 270 0.0 8.0 0.00 0.00 0.00 75 1011.6
20181017114315 21 270 3.2 8.0 0.00 0.00 0.00 74 1011.8
20181017114113 21 45 3.2 4.8 0.00 0.00 0.00 76 1011.7
20181017113911 21 270 4.8 4.8 0.00 0.00 0.00 76 1011.7
20181017113710 21 0 1.6 6.4 0.00 0.00 0.00 77 1011.7
20181017113507 21 90 4.8 9.7 0.00 0.00 0.00 74 1011.7
20181017113305 21 258 6.4 9.7 0.00 0.00 0.00 73 1011.8
20181017113103 21 90 6.4 6.4 0.00 0.00 0.00 75 1011.8
20181017112901 21 90 1.6 4.8 0.00 0.00 0.00 77 1011.9
20181017112658 21 247 1.6 6.4 0.00 0.00 0.00 76 1011.9
20181017112457 21 270 1.6 6.4 0.00 0.00 0.00 75 1011.9
20181017112254 21 258 4.8 4.8 0.00 0.00 0.00 75 1012.0
20181017111446 21 270 1.6 3.2 0.00 0.00 0.00 78 1012.2
20181017110234 21 45 3.2 4.8 0.00 0.00 0.00 79 1012.5
20181017110032 21 270 3.2 3.2 0.00 0.00 0.00 80 1012.5
20181017105829 21 90 1.6 4.8 0.00 0.00 0.00 81 1012.5
20181017105628 20 90 3.2 4.8 0.00 0.00 0.00 81 1012.5
20181017105425 20 90 3.2 4.8 0.00 0.00 0.00 81 1012.4
20181017105224 20 135 1.6 1.6 0.00 0.00 0.00 82 1012.5
20181017105021 20 135 0.0 1.6 0.00 0.00 0.00 82 1012.5
20181017104820 20 0 0.0 4.8 0.00 0.00 0.00 82 1012.6
20181017104617 20 67 3.2 4.8 0.00 0.00 0.00 83 1012.6
20181017104415 20 90 0.0 3.2 0.00 0.00 0.00 84 1012.6
20181017104213 20 90 1.6 3.2 0.00 0.00 0.00 84 1012.6
20181017104011 20 0 3.2 3.2 0.00 0.00 0.00 84 1012.4
20181017103809 19 270 0.0 3.2 0.00 0.00 0.00 86 1012.5
20181017103607 19 123 1.6 3.2 0.00 0.00 0.00 85 1012.6
20181017103405 19 157 0.0 4.8 0.00 0.00 0.00 85 1012.6
20181017103203 20 45 3.2 4.8 0.00 0.00 0.00 84 1012.7
20181017103000 20 90 3.2 3.2 0.00 0.00 0.00 86 1012.6
20181017102759 19 90 0.0 4.8 0.00 0.00 0.00 87 1012.7
20181017102556 19 270 1.6 4.8 0.00 0.00 0.00 88 1012.6
20181017102355 19 67 1.6 4.8 0.00 0.00 0.00 88 1012.6
20181017102152 19 45 1.6 3.2 0.00 0.00 0.00 88 1012.6
20181017101951 19 67 0.0 3.2 0.00 0.00 0.00 90 1012.6
20181017101748 18 270 0.0 3.2 0.00 0.00 0.00 90 1012.5
20181017101546 18 0 1.6 3.2 0.00 0.00 0.00 90 1012.6
20181017101142 18 270 3.2 3.2 0.00 0.00 0.00 90 1012.6
20181017100940 18 0 0.0 1.6 0.00 0.00 0.00 93 1012.6
20181017100738 18 270 0.0 3.2 0.00 0.00 0.00 93 1012.5
20181017100334 18 67 1.6 3.2 0.00 0.00 0.00 94 1012.6
20181017100132 17 67 1.6 3.2 0.00 0.00 0.00 94 1012.6
20181017095930 17 270 1.6 3.2 0.00 0.00 0.00 94 1012.7
20181017095727 17 67 0.0 3.2 0.00 0.00 0.00 95 1012.7
20181017095526 17 270 0.0 4.8 0.00 0.00 0.00 95 1012.7
20181017095123 17 67 3.2 3.2 0.00 0.00 0.00 97 1012.7
20181017094919 17 67 0.0 3.2 0.00 0.00 0.00 99 1012.7
20181017094718 17 67 0.0 1.6 0.00 0.00 0.00 99 1012.6
20181017094515 17 270 1.6 1.6 0.00 0.00 0.00 99 1012.7
20181017094313 17 270 0.0 3.2 0.00 0.00 0.00 100 1012.7
20181017094111 16 67 1.6 3.2 0.00 0.00 0.00 100 1012.7
20181017093909 16 67 3.2 3.2 0.00 0.00 0.00 100 1012.8
20181017093707 16 270 1.6 3.2 0.00 0.00 0.00 100 1012.7
20181017093505 16 337 0.0 3.2 0.00 0.00 0.00 100 1012.9
20181017093303 16 67 1.6 3.2 0.00 0.00 0.00 100 1012.9
20181017093101 16 270 1.6 3.2 0.00 0.00 0.00 100 1012.8
20181017092858 16 112 1.6 4.8 0.00 0.00 0.00 100 1012.8
20181017092657 15 112 3.2 4.8 0.00 0.00 0.00 100 1012.9
20181017092454 15 112 1.6 3.2 0.00 0.00 0.00 100 1012.9
20181017092253 15 112 1.6 3.2 0.00 0.00 0.00 100 1012.9
20181017092050 15 112 0.0 3.2 0.00 0.00 0.00 100 1012.9
20181017091849 15 112 0.0 3.2 0.00 0.00 0.00 100 1012.8
20181017091646 15 270 0.0 3.2 0.00 0.00 0.00 100 1012.9
20181017091444 15 270 0.0 1.6 0.00 0.00 0.00 100 1013.0
20181017091242 15 270 0.0 0.0 0.00 0.00 0.00 100 1012.9
20181017091040 15 67 0.0 0.0 0.00 0.00 0.00 100 1012.9
20181017090633 14 0 0.0 0.0 0.00 0.00 0.00 100 1012.9
20181017090431 14 0 0.0 0.0 0.00 0.00 0.00 100 1012.9
20181017090229 14 225 0.0 0.0 0.00 0.00 0.00 100 1013.0
20181017090026 13 180 0.0 0.0 0.00 0.00 0.00 100 1013.0
20181017085825 13 180 0.0 0.0 0.00 0.00 0.00 100 1012.9
20181017085622 13 180 0.0 0.0 0.00 0.00 0.00 100 1013.0
20181017085421 13 67 0.0 1.6 0.00 0.00 0.00 100 1013.0
20181017085218 13 67 0.0 1.6 0.00 0.00 0.00 100 1013.0
20181017085017 12 270 0.0 0.0 0.00 0.00 0.00 100 1013.0
20181017084814 12 270 0.0 0.0 0.00 0.00 0.00 100 1013.1
20181017084614 12 270 0.0 0.0 0.00 0.00 0.00 100 1013.1
20181017084410 12 270 0.0 0.0 0.00 0.00 0.00 100 1013.3
20181017084209 12 270 0.0 0.0 0.00 0.00 0.00 100 1013.1
20181017084006 12 270 0.0 0.0 0.00 0.00 0.00 100 1013.3
20181017083804 12 270 0.0 1.6 0.00 0.00 0.00 100 1013.2
20181017083602 11 270 0.0 1.6 0.00 0.00 0.00 100 1013.2
20181017083400 11 270 1.6 1.6 0.00 0.00 0.00 100 1013.3
20181017083158 11 270 0.0 0.0 0.00 0.00 0.00 100 1013.2
20181017082956 11 270 0.0 0.0 0.00 0.00 0.00 100 1013.3
20181017082754 11 270 0.0 0.0 0.00 0.00 0.00 100 1013.2
20181017082552 11 270 0.0 0.0 0.00 0.00 0.00 100 1013.3
20181017082349 11 270 0.0 0.0 0.00 0.00 0.00 100 1013.2
20181017082148 11 270 0.0 0.0 0.00 0.00 0.00 100 1013.2
20181017081945 11 270 0.0 0.0 0.00 0.00 0.00 100 1013.3
20181017081743 11 270 0.0 0.0 0.00 0.00 0.00 100 1013.3
20181017081541 11 270 0.0 0.0 0.00 0.00 0.00 100 1013.3
20181017081339 11 270 0.0 0.0 0.00 0.00 0.00 100 1013.2
20181017081137 11 180 0.0 0.0 0.00 0.00 0.00 100 1013.2
20181017080935 11 180 0.0 0.0 0.00 0.00 0.00 100 1013.2
20181017080733 11 180 0.0 0.0 0.00 0.00 0.00 100 1013.2
20181017080531 10 180 0.0 0.0 0.00 0.00 0.00 100 1013.2
20181017080329 10 270 0.0 0.0 0.00 0.00 0.00 100 1013.1
20181017080127 10 270 0.0 0.0 0.00 0.00 0.00 100 1013.1
20181017075924 10 135 0.0 0.0 0.00 0.00 0.00 100 1013.1
20181017075723 10 135 0.0 0.0 0.00 0.00 0.00 100 1013.1
20181017075520 10 135 0.0 0.0 0.00 0.00 0.00 100 1013.2
20181017075319 10 135 0.0 0.0 0.00 0.00 0.00 100 1013.1
20181017075116 10 135 0.0 0.0 0.00 0.00 0.00 100 1013.2
20181017074915 10 90 0.0 0.0 0.00 0.00 0.00 100 1013.2
20181017074712 10 90 0.0 0.0 0.00 0.00 0.00 100 1013.2
20181017074510 10 135 0.0 0.0 0.00 0.00 0.00 100 1013.2
20181017074308 10 180 0.0 0.0 0.00 0.00 0.00 100 1013.2
20181017074106 10 180 0.0 0.0 0.00 0.00 0.00 100 1013.1
20181017073904 10 135 0.0 0.0 0.00 0.00 0.00 100 1013.1
20181017073702 10 180 0.0 0.0 0.00 0.00 0.00 100 1013.0
20181017073500 10 180 0.0 0.0 0.00 0.00 0.00 100 1012.9
20181017073258 10 135 0.0 0.0 0.00 0.00 0.00 100 1013.0
20181017073055 10 202 0.0 0.0 0.00 0.00 0.00 100 1013.0
20181017072854 10 202 0.0 0.0 0.00 0.00 0.00 100 1013.1
20181017072651 10 202 0.0 0.0 0.00 0.00 0.00 100 1013.1
20181017072450 10 202 0.0 0.0 0.00 0.00 0.00 100 1013.1
20181017072247 10 202 0.0 0.0 0.00 0.00 0.00 100 1013.2
20181017072046 10 202 0.0 0.0 0.00 0.00 0.00 100 1013.1
20181017071843 10 337 0.0 0.0 0.00 0.00 0.00 100 1012.9
20181017071641 10 225 0.0 0.0 0.00 0.00 0.00 100 1013.0
20181017071439 10 270 0.0 0.0 0.00 0.00 0.00 100 1012.9
20181017071237 10 270 0.0 0.0 0.00 0.00 0.00 100 1013.0
20181017070834 10 270 0.0 0.0 0.00 0.00 0.00 100 1012.9
20181017070631 10 270 0.0 0.0 0.00 0.00 0.00 100 1013.0
20181017070429 10 270 0.0 0.0 0.00 0.00 0.00 100 1013.0
20181017070226 10 270 0.0 0.0 0.00 0.00 0.00 100 1012.9
20181017070025 10 270 0.0 0.0 0.00 0.00 0.00 100 1012.9
20181017065822 10 270 0.0 0.0 0.00 0.00 0.00 100 1012.9
20181017065621 10 270 0.0 0.0 0.00 0.00 0.00 100 1012.9
20181017065419 10 270 0.0 0.0 0.00 0.00 0.00 100 1012.7
20181017065217 10 270 0.0 0.0 0.00 0.00 0.00 100 1012.8
20181017065014 10 270 0.0 0.0 0.00 0.00 0.00 100 1012.8
20181017064813 10 270 0.0 0.0 0.00 0.00 0.00 100 1012.8
20181017064612 11 270 0.0 0.0 0.00 0.00 0.00 100 1012.7
20181017064408 11 270 0.0 0.0 0.00 0.00 0.00 100 1012.8
20181017064004 11 135 0.0 0.0 0.00 0.00 0.00 100 1012.7
20181017063802 11 135 0.0 0.0 0.00 0.00 0.00 100 1012.7
20181017063600 11 135 0.0 0.0 0.00 0.00 0.00 100 1012.6
20181017063357 11 135 0.0 0.0 0.00 0.00 0.00 100 1012.8
20181017063156 11 135 0.0 0.0 0.00 0.00 0.00 100 1012.7
20181017062953 11 135 0.0 0.0 0.00 0.00 0.00 100 1012.8
20181017062752 11 135 0.0 0.0 0.00 0.00 0.00 100 1012.7
20181017062549 11 135 0.0 0.0 0.00 0.00 0.00 100 1012.8
20181017062348 11 135 0.0 0.0 0.00 0.00 0.00 100 1012.7
20181017062145 11 135 0.0 0.0 0.00 0.00 0.00 100 1012.8
20181017061943 11 135 0.0 0.0 0.00 0.00 0.00 100 1012.7
20181017061741 11 135 0.0 0.0 0.00 0.00 0.00 100 1012.8
20181017061539 10 135 0.0 0.0 0.00 0.00 0.00 100 1012.8
20181017061337 10 180 0.0 0.0 0.00 0.00 0.00 100 1012.8
20181017061137 10 180 0.0 0.0 0.00 0.00 0.00 100 1012.8
20181017060933 10 180 0.0 0.0 0.00 0.00 0.00 100 1012.8
20181017060731 10 180 0.0 0.0 0.00 0.00 0.00 100 1012.9
20181017060528 10 180 0.0 0.0 0.00 0.00 0.00 100 1013.0
20181017060327 10 180 0.0 0.0 0.00 0.00 0.00 100 1012.9
20181017060124 10 180 0.0 0.0 0.00 0.00 0.00 100 1012.9
20181017055923 11 180 0.0 0.0 0.00 0.00 0.00 100 1012.9
20181017055720 11 180 0.0 0.0 0.00 0.00 0.00 100 1012.8
20181017055519 11 180 0.0 0.0 0.00 0.00 0.00 100 1012.8
20181017055316 11 180 0.0 0.0 0.00 0.00 0.00 100 1012.8
20181017055114 11 180 0.0 0.0 0.00 0.00 0.00 100 1012.9
20181017054913 11 180 0.0 0.0 0.00 0.00 0.00 100 1012.8
20181017054710 11 180 0.0 0.0 0.00 0.00 0.00 100 1012.9
20181017054306 11 180 0.0 0.0 0.00 0.00 0.00 100 1012.8
20181017054104 11 180 0.0 0.0 0.00 0.00 0.00 100 1012.8
20181017053902 11 180 0.0 0.0 0.00 0.00 0.00 100 1012.9
20181017053659 11 270 0.0 0.0 0.00 0.00 0.00 100 1012.8
20181017053458 11 270 0.0 0.0 0.00 0.00 0.00 100 1012.7
20181017053255 11 270 0.0 0.0 0.00 0.00 0.00 100 1012.7
20181017053054 11 270 0.0 0.0 0.00 0.00 0.00 100 1012.8
20181017052851 11 270 0.0 0.0 0.00 0.00 0.00 100 1012.8
20181017052650 11 270 0.0 0.0 0.00 0.00 0.00 100 1012.8
20181017052447 11 270 0.0 0.0 0.00 0.00 0.00 100 1012.8
20181017052246 11 270 0.0 0.0 0.00 0.00 0.00 100 1012.9
20181017052043 11 270 0.0 0.0 0.00 0.00 0.00 100 1013.0
20181017051841 11 270 0.0 0.0 0.00 0.00 0.00 100 1012.9
20181017051639 11 270 0.0 0.0 0.00 0.00 0.00 100 1012.9
20181017051437 11 270 0.0 0.0 0.00 0.00 0.00 100 1013.0
20181017051235 11 270 0.0 0.0 0.00 0.00 0.00 100 1013.1
20181017051033 11 270 0.0 0.0 0.00 0.00 0.00 100 1013.0
20181017050831 11 270 0.0 0.0 0.00 0.00 0.00 100 1013.0
20181017050629 11 270 0.0 0.0 0.00 0.00 0.00 100 1012.9
20181017050426 11 270 0.0 0.0 0.00 0.00 0.00 100 1012.9
20181017050225 11 270 0.0 0.0 0.00 0.00 0.00 100 1012.8
20181017050022 11 270 0.0 0.0 0.00 0.00 0.00 100 1012.9
20181017045821 11 270 0.0 0.0 0.00 0.00 0.00 100 1013.0
20181017045618 11 270 0.0 0.0 0.00 0.00 0.00 100 1013.0
20181017045417 11 270 0.0 0.0 0.00 0.00 0.00 100 1012.9
20181017045009 11 270 0.0 0.0 0.00 0.00 0.00 100 1012.9
20181017044807 11 270 0.0 0.0 0.00 0.00 0.00 100 1012.9
20181017044605 11 270 0.0 0.0 0.00 0.00 0.00 100 1012.9
20181017044403 11 270 0.0 0.0 0.00 0.00 0.00 100 1012.8
20181017044201 11 270 0.0 0.0 0.00 0.00 0.00 100 1012.8
20181017043959 11 270 0.0 0.0 0.00 0.00 0.00 100 1012.8
20181017043757 12 270 0.0 0.0 0.00 0.00 0.00 100 1012.9
20181017043554 12 270 0.0 0.0 0.00 0.00 0.00 100 1012.8
20181017043353 12 270 0.0 0.0 0.00 0.00 0.00 100 1012.8
20181017043150 12 270 0.0 0.0 0.00 0.00 0.00 100 1012.9
20181017042949 12 270 0.0 0.0 0.00 0.00 0.00 100 1012.8
20181017042746 12 270 0.0 0.0 0.00 0.00 0.00 100 1012.7
20181017042545 12 270 0.0 0.0 0.00 0.00 0.00 100 1012.7
20181017042342 12 270 0.0 0.0 0.00 0.00 0.00 100 1012.8
20181017042140 12 270 0.0 0.0 0.00 0.00 0.00 100 1012.7
20181017041534 12 270 0.0 0.0 0.00 0.00 0.00 100 1012.7
20181017041332 12 270 0.0 0.0 0.00 0.00 0.00 100 1012.6
20181017041130 12 270 0.0 0.0 0.00 0.00 0.00 100 1012.5
20181017040928 12 270 0.0 0.0 0.00 0.00 0.00 100 1012.6
20181017040725 12 270 0.0 0.0 0.00 0.00 0.00 100 1012.6
20181017040524 12 270 0.0 0.0 0.00 0.00 0.00 100 1012.5
20181017040321 12 67 0.0 0.0 0.00 0.00 0.00 100 1012.5
20181017040120 12 337 0.0 0.0 0.00 0.00 0.00 100 1012.5
20181017035917 12 337 0.0 0.0 0.00 0.00 0.00 100 1012.5
20181017035716 12 337 0.0 0.0 0.00 0.00 0.00 100 1012.4
20181017035513 12 270 0.0 0.0 0.00 0.00 0.00 100 1012.3
20181017035311 12 270 0.0 0.0 0.00 0.00 0.00 100 1012.4
20181017035109 12 270 0.0 0.0 0.00 0.00 0.00 100 1012.5
20181017034908 12 337 0.0 0.0 0.00 0.00 0.00 100 1012.6
20181017034705 12 225 0.0 0.0 0.00 0.00 0.00 100 1012.4
20181017034301 12 270 0.0 0.0 0.00 0.00 0.00 100 1012.4
20181017034059 12 270 0.0 0.0 0.00 0.00 0.00 100 1012.5
20181017032240 12 270 0.0 0.0 0.00 0.00 0.00 100 1012.7
20181017032038 12 270 0.0 0.0 0.00 0.00 0.00 100 1012.6
20181017031836 12 270 0.0 0.0 0.00 0.00 0.00 100 1012.6
20181017031634 12 270 0.0 1.6 0.00 0.00 0.00 100 1012.7
20181017031432 12 67 0.0 1.6 0.00 0.00 0.00 100 1012.6
20181017031230 12 67 0.0 0.0 0.00 0.00 0.00 100 1012.7
20181017031028 12 337 0.0 0.0 0.00 0.00 0.00 100 1012.7
20181017030826 12 202 0.0 3.2 0.00 0.00 0.00 100 1012.7
20181017030623 12 67 0.0 3.2 0.00 0.00 0.00 100 1012.6
20181017030422 12 270 0.0 1.6 0.00 0.00 0.00 100 1012.6
20181017030018 12 270 0.0 1.6 0.00 0.00 0.00 100 1012.6
20181017025815 12 270 0.0 1.6 0.00 0.00 0.00 100 1012.7
20181017025614 12 135 0.0 3.2 0.00 0.00 0.00 100 1012.6
20181017025411 12 337 1.6 3.2 0.00 0.00 0.00 100 1012.6
20181017025209 12 270 0.0 3.2 0.00 0.00 0.00 100 1012.5
20181017025007 12 270 0.0 3.2 0.00 0.00 0.00 100 1012.6
20181017024805 12 270 0.0 1.6 0.00 0.00 0.00 100 1012.6
20181017024603 12 270 1.6 1.6 0.00 0.00 0.00 100 1012.6
20181017024401 12 337 0.0 1.6 0.00 0.00 0.00 100 1012.8
20181017024159 12 270 0.0 1.6 0.00 0.00 0.00 100 1012.7
20181017023957 12 337 1.6 1.6 0.00 0.00 0.00 100 1012.6
20181017023754 12 270 0.0 1.6 0.00 0.00 0.00 100 1012.7
20181017023553 13 337 0.0 1.6 0.00 0.00 0.00 100 1012.7
20181017023350 13 337 0.0 3.2 0.00 0.00 0.00 100 1012.5
20181017023149 13 180 0.0 3.2 0.00 0.00 0.00 100 1012.7
20181017022946 13 0 0.0 1.6 0.00 0.00 0.00 100 1012.6
20181017022745 13 337 0.0 1.6 0.00 0.00 0.00 100 1012.7
20181017022340 13 270 0.0 1.6 0.00 0.00 0.00 100 1012.7
20181017022138 13 270 0.0 1.6 0.00 0.00 0.00 100 1012.8
20181017021936 13 337 0.0 0.0 0.00 0.00 0.00 100 1012.7
20181017021734 13 303 0.0 1.6 0.00 0.00 0.00 100 1012.8
20181017021532 13 90 0.0 1.6 0.00 0.00 0.00 100 1012.8
20181017021330 13 270 0.0 1.6 0.00 0.00 0.00 100 1012.8
20181017021128 13 270 0.0 1.6 0.00 0.00 0.00 100 1012.9
20181017020925 13 0 1.6 1.6 0.00 0.00 0.00 100 1012.8
20181017020724 13 337 0.0 1.6 0.00 0.00 0.00 100 1012.8
20181017020521 13 337 0.0 1.6 0.00 0.00 0.00 100 1012.9
20181017020320 13 180 0.0 1.6 0.00 0.00 0.00 100 1012.9
20181017020117 13 67 0.0 1.6 0.00 0.00 0.00 100 1012.9
20181017015916 13 180 0.0 1.6 0.00 0.00 0.00 100 1012.9
20181017015713 13 90 0.0 4.8 0.00 0.00 0.00 100 1012.9
20181017015511 13 67 1.6 4.8 0.00 0.00 0.00 100 1012.9
20181017015309 13 67 0.0 3.2 0.00 0.00 0.00 100 1012.8
20181017015107 13 270 0.0 1.6 0.00 0.00 0.00 100 1012.8
20181017014905 13 270 0.0 1.6 0.00 0.00 0.00 100 1012.8
20181017014703 13 270 0.0 1.6 0.00 0.00 0.00 100 1012.8
20181017014259 13 270 1.6 3.2 0.00 0.00 0.00 100 1012.8
20181017014056 13 337 0.0 1.6 0.00 0.00 0.00 100 1012.7
20181017013855 13 270 0.0 3.2 0.00 0.00 0.00 100 1012.8
20181017013652 13 337 0.0 3.2 0.00 0.00 0.00 100 1012.9
20181017013451 13 270 0.0 1.6 0.00 0.00 0.00 100 1012.9
20181017013248 13 67 0.0 3.2 0.00 0.00 0.00 100 1012.9
20181017013047 13 337 0.0 3.2 0.00 0.00 0.00 100 1013.0
20181017012844 13 67 1.6 1.6 0.00 0.00 0.00 100 1012.9
20181017012642 13 270 0.0 1.6 0.00 0.00 0.00 100 1012.8
20181017012440 13 270 0.0 1.6 0.00 0.00 0.00 100 1012.8
20181017012238 13 67 0.0 1.6 0.00 0.00 0.00 100 1012.7
20181017012036 13 292 0.0 1.6 0.00 0.00 0.00 100 1012.7
20181017011834 13 270 0.0 1.6 0.00 0.00 0.00 100 1012.7
20181017011632 13 0 1.6 3.2 0.00 0.00 0.00 100 1012.8
20181017011430 13 270 1.6 3.2 0.00 0.00 0.00 100 1012.8
20181017011227 13 337 0.0 3.2 0.00 0.00 0.00 100 1012.8
20181017011026 13 0 1.6 3.2 0.00 0.00 0.00 100 1012.9
20181017010823 13 270 0.0 1.6 0.00 0.00 0.00 100 1012.8
20181017010622 13 337 0.0 3.2 0.00 0.00 0.00 100 1012.8
20181017010419 13 270 0.0 3.2 0.00 0.00 0.00 100 1012.9
20181017010218 13 303 1.6 4.8 0.00 0.00 0.00 100 1012.9
20181017010015 13 0 0.0 4.8 0.00 0.00 0.00 100 1012.8
20181017005814 13 337 4.8 4.8 0.00 0.00 0.00 100 1012.7
20181017005611 13 270 0.0 1.6 0.00 0.00 0.00 100 1012.7
20181017005409 13 337 1.6 1.6 0.00 0.00 0.00 100 1012.7
20181017005005 13 180 1.6 3.2 0.00 0.00 0.00 100 1012.8
20181017004803 13 270 0.0 3.2 0.00 0.00 0.00 100 1012.8
20181017004601 13 337 0.0 3.2 0.00 0.00 0.00 100 1012.8
20181017004359 13 225 1.6 3.2 0.00 0.00 0.00 100 1012.8
20181017004157 13 337 0.0 4.8 0.00 0.00 0.00 100 1012.9
20181017003954 13 67 0.0 4.8 0.00 0.00 0.00 100 1012.9
20181017003753 13 67 1.6 3.2 0.00 0.00 0.00 100 1012.8
20181017003550 13 270 0.0 1.6 0.00 0.00 0.00 100 1012.9
20181017003349 13 270 0.0 4.8 0.00 0.00 0.00 100 1012.9
20181017003146 13 90 0.0 4.8 0.00 0.00 0.00 100 1013.0
20181017002944 13 180 0.0 4.8 0.00 0.00 0.00 100 1012.9
20181017002742 13 202 1.6 4.8 0.00 0.00 0.00 100 1012.8
20181017002540 13 337 4.8 4.8 0.00 0.00 0.00 100 1012.8
20181017002338 13 191 0.0 4.8 0.00 0.00 0.00 100 1012.9
20181017002136 13 303 0.0 4.8 0.00 0.00 0.00 100 1012.9
20181017001934 13 303 1.6 3.2 0.00 0.00 0.00 100 1012.8
20181017001732 13 270 1.6 3.2 0.00 0.00 0.00 100 1012.8
20181017001530 13 225 3.2 3.2 0.00 0.00 0.00 100 1012.8
20181017001328 13 202 3.2 3.2 0.00 0.00 0.00 100 1012.8
20181017001125 13 270 1.6 3.2 0.00 0.00 0.00 100 1012.7
20181017000924 13 270 0.0 3.2 0.00 0.00 0.00 100 1012.8
20181017000721 13 270 0.0 4.8 0.00 0.00 0.00 100 1012.9
20181017000520 13 225 0.0 4.8 0.00 0.00 0.00 100 1012.8
20181017000317 14 270 1.6 4.8 0.00 0.00 0.00 100 1012.8
20181016235913 14 157 1.6 4.8 0.00 0.00 0.00 100 1012.8
20181016235711 14 270 0.0 4.8 0.00 0.00 0.00 100 1012.7
20181016235509 14 180 0.0 3.2 0.00 0.00 0.00 100 1012.7
20181016235307 14 45 1.6 3.2 0.00 0.00 0.00 100 1012.8
20181016235105 14 180 0.0 3.2 0.00 0.00 0.00 100 1012.8
20181016234903 14 225 0.0 6.4 0.00 0.00 0.00 100 1012.8
20181016234256 14 337 1.6 4.8 0.00 0.00 0.00 100 1013.0
20181016234055 14 225 3.2 4.8 0.00 0.00 0.00 100 1012.7
20181016233852 14 180 0.0 4.8 0.00 0.00 0.00 100 1012.7
20181016233651 14 202 3.2 4.8 0.00 0.00 0.00 100 1012.8
20181016233247 14 180 4.8 4.8 0.00 0.00 0.00 100 1012.8
20181016233044 14 225 1.6 8.0 0.00 0.00 0.00 100 1012.8
20181016232842 14 247 8.0 8.0 0.00 0.00 0.00 100 1012.8
20181016232640 14 213 3.2 6.4 0.00 0.00 0.00 100 1012.8
20181016232438 14 67 0.0 4.8 0.00 0.00 0.00 100 1012.9
20181016232236 14 225 3.2 6.4 0.00 0.00 0.00 100 1012.9
20181016231832 14 247 6.4 6.4 0.00 0.00 0.00 100 1012.8
20181016231630 14 270 1.6 4.8 0.00 0.00 0.00 100 1012.9
20181016231427 14 67 0.0 8.0 0.00 0.00 0.00 100 1012.9
20181016231226 14 270 1.6 8.0 0.00 0.00 0.00 100 1012.9
20181016231023 14 270 1.6 4.8 0.00 0.00 0.00 100 1012.9
20181016230822 14 225 3.2 4.8 0.00 0.00 0.00 100 1012.8
20181016230619 14 135 1.6 4.8 0.00 0.00 0.00 100 1013.0
20181016230418 14 225 1.6 4.8 0.00 0.00 0.00 100 1013.0
20181016230215 14 225 0.0 3.2 0.00 0.00 0.00 100 1013.0
20181016230013 14 270 0.0 3.2 0.00 0.00 0.00 100 1012.9
20181016225811 14 270 1.6 6.4 0.00 0.00 0.00 100 1013.1
20181016225402 14 270 1.6 3.2 0.00 0.00 0.00 100 1012.9
20181016225200 14 247 1.6 4.8 0.00 0.00 0.00 100 1013.0
20181016224756 14 45 4.8 4.8 0.00 0.00 0.00 100 1012.9
20181016224554 14 45 4.8 4.8 0.00 0.00 0.00 100 1012.9
20181016224352 14 247 0.0 1.6 0.00 0.00 0.00 100 1012.9
20181016224149 14 270 1.6 1.6 0.00 0.00 0.00 100 1013.1
20181016223740 14 247 0.0 3.2 0.00 0.00 0.00 100 1013.0
20181016223539 14 157 3.2 3.2 0.00 0.00 0.00 100 1013.0
20181016223336 14 270 0.0 3.2 0.00 0.00 0.00 100 1013.0
20181016223134 14 270 1.6 1.6 0.00 0.00 0.00 100 1013.1
20181016222932 14 270 0.0 1.6 0.00 0.00 0.00 100 1013.1
20181016222730 15 45 0.0 1.6 0.00 0.00 0.00 100 1013.1
20181016222528 15 270 1.6 1.6 0.00 0.00 0.00 100 1013.1
20181016222326 15 45 0.0 1.6 0.00 0.00 0.00 100 1013.1
20181016222124 15 45 0.0 1.6 0.00 0.00 0.00 100 1013.1
20181016221922 15 270 0.0 3.2 0.00 0.00 0.00 100 1013.2
20181016221720 15 45 0.0 3.2 0.00 0.00 0.00 100 1013.2
20181016221518 15 270 1.6 3.2 0.00 0.00 0.00 100 1013.2
20181016221317 15 45 0.0 1.6 0.00 0.00 0.00 100 1013.1
20181016221114 15 45 1.6 1.6 0.00 0.00 0.00 100 1013.1
20181016220911 15 270 1.6 1.6 0.00 0.00 0.00 100 1013.2
20181016220710 15 270 0.0 3.2 0.00 0.00 0.00 100 1013.1
20181016220306 15 270 0.0 3.2 0.00 0.00 0.00 100 1013.1
20181016220103 15 67 1.6 1.6 0.00 0.00 0.00 100 1013.2
20181016215901 15 45 1.6 3.2 0.00 0.00 0.00 100 1013.0
20181016215659 15 270 0.0 3.2 0.00 0.00 0.00 100 1013.1
20181016215457 15 67 3.2 3.2 0.00 0.00 0.00 100 1013.1
20181016215255 15 270 0.0 3.2 0.00 0.00 0.00 100 1013.1
20181016215053 15 270 1.6 1.6 0.00 0.00 0.00 100 1013.1
20181016214851 15 45 1.6 1.6 0.00 0.00 0.00 99 1013.1
20181016214649 15 270 0.0 1.6 0.00 0.00 0.00 99 1013.1
20181016214446 15 270 0.0 1.6 0.00 0.00 0.00 99 1013.1
20181016214245 15 270 0.0 1.6 0.00 0.00 0.00 99 1013.1
20181016214042 15 270 0.0 0.0 0.00 0.00 0.00 99 1013.1
20181016213841 15 270 0.0 0.0 0.00 0.00 0.00 98 1013.0
20181016213638 15 45 0.0 3.2 0.00 0.00 0.00 99 1013.0
20181016213437 15 45 0.0 3.2 0.00 0.00 0.00 98 1013.1
20181016213234 15 270 0.0 0.0 0.00 0.00 0.00 99 1013.0
20181016213032 15 270 0.0 1.6 0.00 0.00 0.00 98 1013.0
20181016212830 15 135 0.0 1.6 0.00 0.00 0.00 98 1013.0
20181016212628 15 270 0.0 0.0 0.00 0.00 0.00 98 1013.1
20181016212426 15 270 0.0 6.4 0.00 0.00 0.00 98 1013.0
20181016212224 15 67 0.0 6.4 0.00 0.00 0.00 98 1012.9
20181016212022 15 0 1.6 3.2 0.00 0.00 0.00 98 1013.0
20181016211820 15 67 1.6 3.2 0.00 0.00 0.00 97 1013.1
20181016211617 15 67 0.0 3.2 0.00 0.00 0.00 97 1013.0
20181016211416 15 270 0.0 1.6 0.00 0.00 0.00 97 1013.1
20181016211213 15 67 0.0 1.6 0.00 0.00 0.00 97 1013.1
20181016211012 15 270 0.0 0.0 0.00 0.00 0.00 97 1013.1
20181016210809 15 270 0.0 0.0 0.00 0.00 0.00 96 1013.0
20181016210405 15 67 0.0 1.6 0.00 0.00 0.00 96 1013.0
20181016210204 15 270 0.0 1.6 0.00 0.00 0.00 96 1013.0
20181016210001 15 67 0.0 1.6 0.00 0.00 0.00 96 1013.0
20181016205759 15 270 0.0 0.0 0.00 0.00 0.00 96 1012.9
20181016205355 15 45 0.0 1.6 0.00 0.00 0.00 96 1012.9
20181016205153 15 270 0.0 1.6 0.00 0.00 0.00 96 1012.8
20181016204951 15 270 0.0 0.0 0.00 0.00 0.00 96 1012.8
20181016204749 16 135 0.0 3.2 0.00 0.00 0.00 95 1012.7
20181016204547 16 270 0.0 3.2 0.00 0.00 0.00 96 1012.8
20181016204344 16 270 0.0 1.6 0.00 0.00 0.00 95 1012.7
20181016204143 16 180 0.0 3.2 0.00 0.00 0.00 95 1012.7
20181016203940 16 270 0.0 4.8 0.00 0.00 0.00 95 1012.5
20181016203739 16 45 0.0 4.8 0.00 0.00 0.00 95 1012.6
20181016203334 16 270 0.0 1.6 0.00 0.00 0.00 95 1012.6
20181016203132 16 67 0.0 8.0 0.00 0.00 0.00 95 1012.5
20181016202930 16 270 3.2 8.0 0.00 0.00 0.00 95 1012.5
20181016202728 16 67 1.6 4.8 0.00 0.00 0.00 95 1012.4
20181016202526 16 67 1.6 1.6 0.00 0.00 0.00 94 1012.3
20181016201718 16 67 1.6 1.6 0.00 0.00 0.00 93 1012.3
20181016201515 16 45 1.6 3.2 0.00 0.00 0.00 93 1012.3
20181016195253 16 67 1.6 4.8 0.00 0.00 0.00 92 1012.2
20181016195051 16 67 0.0 6.4 0.00 0.00 0.00 92 1012.1
20181016194849 16 67 1.6 6.4 0.00 0.00 0.00 92 1012.1
20181016194646 16 67 0.0 3.2 0.00 0.00 0.00 92 1012.1
20181016194445 16 315 1.6 4.8 0.00 0.00 0.00 92 1012.1
20181016194242 16 270 1.6 4.8 0.00 0.00 0.00 92 1012.1
20181016194041 16 270 4.8 4.8 0.00 0.00 0.00 92 1012.1
20181016193838 16 270 1.6 4.8 0.00 0.00 0.00 91 1012.0
20181016193637 16 67 1.6 4.8 0.00 0.00 0.00 91 1012.1
20181016193434 16 67 1.6 4.8 0.00 0.00 0.00 90 1012.2
20181016193232 16 67 0.0 1.6 0.00 0.00 0.00 90 1012.1
20181016193031 16 67 0.0 1.6 0.00 0.00 0.00 90 1012.1
20181016192828 16 67 0.0 1.6 0.00 0.00 0.00 90 1012.1
20181016192626 17 45 0.0 3.2 0.00 0.00 0.00 90 1012.0
20181016192424 17 270 0.0 3.2 0.00 0.00 0.00 89 1012.1
20181016192222 17 270 0.0 1.6 0.00 0.00 0.00 89 1012.0
20181016192020 17 45 0.0 1.6 0.00 0.00 0.00 89 1012.0
20181016191817 17 67 0.0 1.6 0.00 0.00 0.00 89 1012.1
20181016191616 17 45 0.0 1.6 0.00 0.00 0.00 88 1012.0
20181016191413 17 78 0.0 1.6 0.00 0.00 0.00 89 1012.1
20181016191212 17 45 0.0 1.6 0.00 0.00 0.00 88 1012.0
20181016191009 17 270 0.0 1.6 0.00 0.00 0.00 88 1012.0
20181016190808 17 270 0.0 1.6 0.00 0.00 0.00 88 1012.0
20181016190605 17 270 0.0 6.4 0.00 0.00 0.00 87 1012.0
20181016190403 17 0 0.0 6.4 0.00 0.00 0.00 87 1012.1
20181016190201 17 90 1.6 3.2 0.00 0.00 0.00 87 1012.1
20181016185959 17 270 0.0 3.2 0.00 0.00 0.00 87 1012.0
20181016185757 17 270 0.0 4.8 0.00 0.00 0.00 87 1012.0
20181016185555 17 90 0.0 4.8 0.00 0.00 0.00 86 1011.9
20181016185353 17 90 0.0 3.2 0.00 0.00 0.00 86 1012.0
20181016185151 17 90 1.6 3.2 0.00 0.00 0.00 86 1012.0
20181016184949 17 90 0.0 1.6 0.00 0.00 0.00 85 1011.9
20181016184747 17 90 1.6 1.6 0.00 0.00 0.00 85 1012.0
20181016184544 17 90 0.0 1.6 0.00 0.00 0.00 85 1011.9
20181016184343 17 270 0.0 1.6 0.00 0.00 0.00 84 1011.9
20181016184140 17 270 0.0 0.0 0.00 0.00 0.00 84 1011.9
20181016183939 18 90 0.0 3.2 0.00 0.00 0.00 84 1011.7
20181016183736 18 90 0.0 3.2 0.00 0.00 0.00 84 1011.7
20181016183332 18 90 0.0 1.6 0.00 0.00 0.00 83 1011.7
20181016183131 18 270 0.0 1.6 0.00 0.00 0.00 83 1011.6
20181016182928 18 90 1.6 4.8 0.00 0.00 0.00 82 1011.5
20181016182726 18 90 0.0 4.8 0.00 0.00 0.00 82 1011.5
20181016182524 18 270 0.0 6.4 0.00 0.00 0.00 82 1011.4